#timestamp,LO_Frequency,Hit 
1500955215.2,286047005.1,N
1500955235.0,286047009.0,N
1500955235.9,286047009.0,N
1500955255.8,286047007.9,N
1500955275.6,286047008.3,N
1500955295.4,286047007.3,N
1500955315.3,286047004.8,N
1500955335.1,286047005.0,N
1500955336.0,286047005.0,N
1500955355.8,286047006.5,N
1500955375.7,286047005.4,N
1500955395.5,286047006.9,N
1500955415.3,286047004.9,N
1500955435.1,286047010.5,N
1500955455.9,286047009.0,N
1500955475.7,286047006.4,N
1500955495.5,286047007.8,N
1500955515.4,286047011.7,N
1500955535.2,286047012.3,N
1500955555.0,286047009.7,N
1500955555.9,286047009.7,N
1500955575.8,286047010.5,N
1500955595.6,286047011.9,N
1500955615.4,286047012.1,N
1500955635.3,286047010.7,N
1500955655.1,286047007.9,N
1500955656.0,286047007.9,N
1500955675.8,286047009.4,N
1500955695.6,286047009.9,N
1500955715.5,286047012.2,N
1500955735.3,286047009.6,N
1500955755.1,286047010.9,N
1500955775.9,286047013.3,N
1500955795.7,286047012.0,N
1500955815.5,286047013.5,N
1500955835.4,286047011.1,N
1500955855.2,286047013.3,N
1500955875.0,286047015.6,N
1500955875.9,286047015.6,N
1500955895.8,286047011.3,N
1500955915.6,286047008.1,N
1500955935.4,286047012.2,N
1500955955.2,286047011.9,N
1500955975.1,286047012.0,N
1500955976.0,286047012.0,N
1500955995.8,286047009.7,N
1500956015.6,286047011.2,N
1500956035.5,286047014.0,N
1500956055.3,286047013.1,N
1500956075.1,286047009.4,N
1500956095.9,286047011.8,N
1500956115.7,286047015.5,N
1500956135.5,286047013.5,N
1500956155.4,286047011.5,N
1500956175.2,286047013.9,N
1500956195.0,286047013.5,N
1500956195.9,286047013.5,N
1500956215.7,286047011.9,N
1500956235.6,286047009.7,N
1500956255.4,286047009.4,N
1500956275.2,286047012.3,N
1500956295.1,286047014.4,N
1500956296.0,286047014.4,N
1500956315.8,286047014.6,N
1500956335.6,286047011.0,N
1500956355.5,286047011.1,N
1500956375.3,286047008.6,N
1500956395.1,286047006.8,N
1500956415.9,286047006.6,N
1500956435.7,286047009.6,N
1500956455.5,286047013.7,N
1500956475.3,286047013.5,N
1500956495.2,286047008.1,N
1500956515.0,286047008.6,N
1500956515.9,286047008.6,N
1500956535.7,286047007.8,N
1500956555.6,286047009.3,N
1500956575.4,286047009.1,N
1500956595.2,286047010.3,N
1500956615.1,286047006.4,N
1500956616.0,286047006.4,N
1500956635.8,286047006.3,N
1500956655.6,286047006.5,N
1500956675.5,286047006.1,N
1500956695.3,286047006.6,N
1500956715.1,286047008.9,N
1500956735.8,286047010.3,N
1500956755.7,286047011.8,N
1500956775.5,286047013.6,N
1500956795.3,286047011.5,N
1500956815.2,286047008.8,N
1500956835.9,286047006.0,N
1500956855.7,286047007.3,N
1500956875.6,286047007.7,N
1500956895.4,286047007.8,N
1500956915.2,286047011.8,N
1500956935.1,286047013.1,N
1500956936.0,286047013.1,N
1500956955.8,286047011.6,N
1500956975.6,286047012.9,N
1500956995.4,286047018.7,N
1500957015.3,286047017.5,N
1500957035.1,286047017.5,N
1500957055.8,286047015.4,N
1500957075.7,286047015.3,N
1500957095.5,286047017.1,N
1500957115.3,286047012.6,N
1500957135.2,286047012.6,N
1500957155.9,286047007.7,N
1500957175.7,286047011.2,N
1500957195.6,286047014.2,N
1500957215.4,286047013.0,N
1500957235.2,286047011.5,N
1500957255.0,286047011.1,N
1500957255.9,286047011.1,N
1500957275.8,286047010.9,N
1500957295.6,286047012.7,N
1500957315.4,286047014.1,N
1500957335.3,286047013.4,N
1500957355.1,286047010.8,N
1500957356.0,286047010.8,N
1500957375.8,286047013.7,N
1500957395.7,286047014.1,N
1500957415.5,286047014.9,N
1500957435.3,286047013.2,N
1500957455.2,286047016.5,N
1500957475.9,286047015.7,N
1500957495.7,286047014.8,N
1500957515.6,286047014.8,N
1500957535.4,286047016.9,N
1500957555.2,286047018.1,Y
1500957575.0,286047006.0,N
1500957576.0,286047006.0,N
1500957595.8,286047005.2,N
1500957615.6,286047007.3,N
1500957635.4,286047008.3,N
1500957655.3,286047008.4,N
1500957675.1,286047006.5,N
1500957695.8,286047006.3,N
1500957715.7,286047009.0,N
1500957735.5,286047006.4,N
1500957755.3,286047006.9,N
1500957775.2,286047005.3,N
1500957795.9,286047004.7,N
1500957815.7,286047003.1,N
1500957835.6,286047001.7,N
1500957855.4,286047001.7,N
1500957875.2,286047005.9,N
1500957895.0,286047001.3,N
1500957895.9,286047001.3,N
1500957915.8,286046999.7,N
1500957935.6,286046999.2,N
1500957955.4,286046998.9,N
1500957975.3,286046997.4,N
1500957995.1,286047000.5,N
1500958015.8,286047002.5,N
1500958035.7,286047001.6,N
1500958055.5,286047004.2,N
1500958075.3,286046998.9,N
1500958095.2,286046997.1,N
1500958115.9,286047000.2,N
1500958135.7,286047004.0,N
1500958155.5,286047002.3,N
1500958175.4,286046996.5,N
1500958195.2,286046995.7,N
1500958215.0,286046999.6,N
1500958215.9,286046999.6,N
1500958235.8,286047000.2,N
1500958255.6,286047002.4,N
1500958275.4,286047000.9,N
1500958295.3,286047001.8,N
1500958315.1,286047004.2,N
1500958316.0,286047004.2,N
1500958335.8,286047001.4,N
1500958355.7,286047007.4,N
1500958375.5,286047006.7,N
1500958395.3,286047006.9,N
1500958415.1,286047009.0,N
1500958435.9,286047010.4,N
1500958455.7,286047005.2,N
1500958475.5,286046999.9,N
1500958495.4,286046998.8,N
1500958515.2,286047000.9,N
1500958535.0,286047002.2,N
1500958535.9,286047002.2,N
1500958555.8,286046999.9,N
1500958575.6,286047001.5,N
1500958595.4,286047004.6,N
1500958615.3,286047007.2,N
1500958635.1,286047004.5,N
1500958636.0,286047004.5,N
1500958655.8,286047004.9,N
1500958675.6,286047007.5,N
1500958695.5,286047007.7,N
1500958715.3,286047012.3,N
1500958735.1,286047007.7,N
1500958755.9,286047007.8,N
1500958775.7,286047010.6,N
1500958795.5,286047011.4,N
